Sumburgh, United Kingdom

3:22 PM BST on April 25, 2018 (GMT +0100)
Sumburgh

Weather History for EGPB - February, 2013

Change the Weather History Date:

Wednesday, February 27, 2013

  Actual Average Record
Temperature  
Mean Temperature 44 °F -  
Max Temperature 46 °F 43 °F 48 °F (2011)
Min Temperature 41 °F 38 °F 24 °F (2001)
Degree Days  
Heating Degree Days 22    
Moisture  
Dew Point 41 °F    
Average Humidity 87    
Maximum Humidity 93    
Minimum Humidity 81    
Precipitation  
Precipitation 0.00 in - - ()
Sea Level Pressure  
Sea Level Pressure 30.55 in    
Wind  
Wind Speed 13 mph ()    
Max Wind Speed 22 mph    
Max Gust Speed -    
Visibility 6.0 miles    
Events Rain    
Averages and records for this station are not official NWS values.
T = Trace of Precipitation, MM = Missing Value Source: Averaged Metar Reports

Daily Weather History Graph

Daily Weather History Graph

Search for Another Location

Airport or City:

Astronomy

Feb. 27, 2013 Rise Set
Actual Time 7:08 AM GMT 5:28 PM GMT
Civil Twilight 6:27 AM GMT 6:10 PM GMT
Nautical Twilight 5:39 AM GMT 6:57 PM GMT
Astronomical Twilight 4:50 AM GMT 7:46 PM GMT
Moon 8:19 PM GMT (2/27) 6:59 AM GMT (2/27)
Length of Visible Light 11h 42m
Length of Day
10h 19m
Full, 97% of the Moon is Illuminated
Feb 27
Full
Mar 4
Last Quarter
Mar 11
New
Mar 19
First Quarter
Mar 27
Full

Hourly Weather History & Observations

Time (GMT) Temp. Windchill Dew Point Humidity Pressure Visibility Wind Dir Wind Speed Gust Speed Precip Events Conditions
12:20 AM 42.8 °F 37.5 °F 39.2 °F 87% 30.60 in 6.2 mi SW 9.2 mph - N/A   Unknown
12:50 AM 42.8 °F 37.0 °F 39.2 °F 87% 30.60 in 6.2 mi SW 10.4 mph - N/A   Unknown
1:20 AM 42.8 °F 37.5 °F 39.2 °F 87% 30.60 in 6.2 mi SW 9.2 mph - N/A   Unknown
1:50 AM 42.8 °F 37.5 °F 39.2 °F 87% 30.60 in 6.2 mi SW 9.2 mph - N/A   Unknown
2:20 AM 42.8 °F 38.0 °F 39.2 °F 87% 30.60 in 3.7 mi SSW 8.1 mph - N/A   Unknown
2:50 AM 42.8 °F 37.5 °F 39.2 °F 87% 30.60 in 4.3 mi SSW 9.2 mph - N/A   Unknown
3:20 AM 41.0 °F 37.1 °F 37.4 °F 87% 30.60 in 6.2 mi SSW 5.8 mph - N/A   Unknown
3:50 AM 41.0 °F 36.4 °F 37.4 °F 87% 30.57 in 6.2 mi SSW 6.9 mph - N/A   Unknown
4:20 AM 42.8 °F 37.0 °F 37.4 °F 81% 30.57 in 6.2 mi SW 10.4 mph - N/A   Unknown
4:50 AM 42.8 °F 36.2 °F 37.4 °F 81% 30.57 in 6.2 mi SW 12.7 mph - N/A   Unknown
5:20 AM 42.8 °F 35.4 °F 37.4 °F 81% 30.57 in 6.2 mi SW 15.0 mph - N/A   Unknown
5:50 AM 42.8 °F 35.4 °F 39.2 °F 87% 30.57 in 6.2 mi SW 15.0 mph - N/A   Unknown
6:20 AM 42.8 °F 35.8 °F 39.2 °F 87% 30.57 in 6.2 mi SW 13.8 mph - N/A   Unknown
6:50 AM 42.8 °F 35.8 °F 39.2 °F 87% 30.57 in 6.2 mi SW 13.8 mph - N/A   Partly Cloudy
7:20 AM 42.8 °F 35.4 °F 39.2 °F 87% 30.57 in 6.2 mi WSW 15.0 mph - N/A   Partly Cloudy
7:50 AM 42.8 °F 34.8 °F 39.2 °F 87% 30.57 in 6.2 mi WSW 17.3 mph - N/A   Partly Cloudy
8:20 AM 44.6 °F 37.4 °F 39.2 °F 81% 30.60 in 6.2 mi WSW 16.1 mph - N/A   Partly Cloudy
8:50 AM 44.6 °F 37.2 °F 39.2 °F 81% 30.60 in 6.2 mi WSW 17.3 mph - N/A   Mostly Cloudy
9:20 AM 44.6 °F 36.6 °F 39.2 °F 81% 30.60 in 6.2 mi WSW 19.6 mph - N/A   Mostly Cloudy
9:50 AM 44.6 °F 37.2 °F 39.2 °F 81% 30.57 in 6.2 mi WSW 17.3 mph - N/A   Mostly Cloudy
10:20 AM 44.6 °F 36.9 °F 41.0 °F 87% 30.57 in 6.2 mi WSW 18.4 mph - N/A   Mostly Cloudy
10:50 AM 44.6 °F 37.2 °F 41.0 °F 87% 30.57 in 6.2 mi WSW 17.3 mph - N/A   Mostly Cloudy
11:20 AM 44.6 °F 36.6 °F 39.2 °F 81% 30.57 in 6.2 mi WSW 19.6 mph - N/A   Mostly Cloudy
11:50 AM 46.4 °F 39.2 °F 41.0 °F 81% 30.57 in 6.2 mi WSW 18.4 mph - N/A   Mostly Cloudy
12:20 PM 44.6 °F 36.4 °F 41.0 °F 87% 30.57 in 6.2 mi WSW 20.7 mph - N/A   Mostly Cloudy
12:50 PM 46.4 °F 38.7 °F 41.0 °F 81% 30.54 in 6.2 mi SW 20.7 mph - N/A   Mostly Cloudy
1:20 PM 44.6 °F 36.6 °F 41.0 °F 87% 30.54 in 6.2 mi SW 19.6 mph - N/A   Mostly Cloudy
1:50 PM 46.4 °F 39.2 °F 41.0 °F 81% 30.54 in 6.2 mi SW 18.4 mph - N/A   Mostly Cloudy
2:20 PM 46.4 °F 39.2 °F 41.0 °F 81% 30.54 in 6.2 mi SW 18.4 mph - N/A   Mostly Cloudy
2:50 PM 46.4 °F 39.2 °F 41.0 °F 81% 30.54 in 6.2 mi WSW 18.4 mph - N/A   Mostly Cloudy
3:20 PM 46.4 °F 39.2 °F 42.8 °F 87% 30.54 in 6.2 mi WSW 18.4 mph - N/A   Mostly Cloudy
3:50 PM 46.4 °F 39.5 °F 42.8 °F 87% 30.51 in 6.2 mi WSW 17.3 mph - N/A   Mostly Cloudy
4:20 PM 44.6 °F 37.2 °F 42.8 °F 93% 30.51 in 6.2 mi WSW 17.3 mph - N/A   Mostly Cloudy
4:50 PM 44.6 °F 36.9 °F 42.8 °F 93% 30.51 in 6.2 mi WSW 18.4 mph - N/A   Mostly Cloudy
5:20 PM 44.6 °F 36.6 °F 42.8 °F 93% 30.51 in 6.2 mi SW 19.6 mph - N/A   Mostly Cloudy
5:50 PM 44.6 °F 37.2 °F 42.8 °F 93% 30.51 in 6.2 mi WSW 17.3 mph - N/A   Mostly Cloudy
6:20 PM 44.6 °F 37.2 °F 42.8 °F 93% 30.51 in 6.2 mi WSW 17.3 mph - N/A   Mostly Cloudy
6:50 PM 44.6 °F 36.9 °F 42.8 °F 93% 30.51 in 6.2 mi WSW 18.4 mph - N/A   Mostly Cloudy
7:20 PM 44.6 °F 36.9 °F 42.8 °F 93% 30.51 in 5.6 mi SW 18.4 mph - N/A   Mostly Cloudy
7:50 PM 44.6 °F 36.9 °F 42.8 °F 93% 30.51 in 6.2 mi SW 18.4 mph - N/A   Mostly Cloudy
8:20 PM 44.6 °F 36.6 °F 42.8 °F 93% 30.48 in 6.2 mi WSW 19.6 mph - N/A   Mostly Cloudy
8:50 PM 44.6 °F 36.6 °F 42.8 °F 93% 30.48 in 6.2 mi WSW 19.6 mph - N/A Rain Light Rain Showers
9:20 PM 44.6 °F 36.6 °F 42.8 °F 93% 30.48 in 6.2 mi WSW 19.6 mph - N/A Rain Light Rain Showers
9:50 PM 44.6 °F 36.1 °F 42.8 °F 93% 30.48 in 5.6 mi WSW 21.9 mph - N/A   Mostly Cloudy
10:20 PM 44.6 °F 36.4 °F 42.8 °F 93% 30.48 in 5.0 mi WSW 20.7 mph - N/A   Mostly Cloudy
10:50 PM 46.4 °F 38.7 °F 42.8 °F 87% 30.48 in 5.0 mi WSW 20.7 mph - N/A   Mostly Cloudy
11:20 PM 46.4 °F 38.5 °F 42.8 °F 87% 30.48 in 5.6 mi WSW 21.9 mph - N/A   Overcast
11:50 PM 46.4 °F 38.7 °F 42.8 °F 87% 30.45 in 5.0 mi WSW 20.7 mph - N/A   Overcast